Zurück zum Katalog

QIANFAN-178

AktivKommunikationPO
NORAD 69395·PAYLOAD·🇨🇳 China

Gestartet Jun 4, 2026 von Taiyuan Satellite Launch Center

Loading…

Nächste Überflüge (nächste 24 Stunden)

TLE

AktuellSource: Space-Track

Epoche: Sep 14, 2026, 21:10 UTC

1 69395U 26124P   26257.88205998  .00000136  00000-0  19277-3 0  9997
2 69395  89.0013 352.4839 0001866 100.4817 259.6545 13.51025359 14196

Verfolge QIANFAN-178 in Echtzeit mit AllMySat

Download on the App Store